SAS4679 ENGM-LEMG

Flight info

Callsign SAS4679
Flight time N/A
Altitude 36000
Route VIPPA DCT UPGAS DCT TIPAN DCT EZTIM/N0450F380 UM185 DIGSU N866 GASGU/N0451F370 N866 SAM/N0451F380 N63 LELNA/N0451F370 DCT NOVAN DCT DELOG/N0452F390 DCT CRISA N864 MOCEQ DCT VULPE
Aircraft B737/M-SDE2E3FGHIRWXY/LB1

Departure

Time N/A
Airport Oslo-Gardermoen International Airport (ENGM)

Arrival

Time 2026-05-07 16:50
Airport Málaga-Costa del Sol Airport (LEMG)
Time Latitude Longitude Altitude Speed Heading
2026-05-07 14:13 53.33398 2.47021 38130 ft 441 kts 221°
2026-05-07 14:13 53.31087 2.43667 38132 ft 441 kts 221°
2026-05-07 14:14 53.26458 2.36950 38124 ft 440 kts 221°
2026-05-07 14:14 53.21828 2.30254 38120 ft 440 kts 221°
2026-05-07 14:15 53.17204 2.23575 38119 ft 440 kts 221°
2026-05-07 14:15 53.12584 2.16906 38110 ft 440 kts 221°
2026-05-07 14:16 53.07955 2.10245 38111 ft 439 kts 221°
2026-05-07 14:16 53.03329 2.03610 38109 ft 439 kts 221°
2026-05-07 14:17 52.98706 1.96998 38112 ft 439 kts 220°
2026-05-07 14:17 52.94079 1.90405 38111 ft 438 kts 220°
2026-05-07 14:18 52.89455 1.83830 38103 ft 438 kts 220°
2026-05-07 14:18 52.84824 1.77263 38102 ft 438 kts 220°
2026-05-07 14:19 52.80190 1.70714 38100 ft 438 kts 220°
2026-05-07 14:19 52.75551 1.64174 38101 ft 439 kts 220°
2026-05-07 14:20 52.70903 1.57641 38101 ft 439 kts 220°
2026-05-07 14:20 52.66252 1.51125 38099 ft 439 kts 220°
2026-05-07 14:21 52.61592 1.44613 38107 ft 439 kts 220°
2026-05-07 14:21 52.56929 1.38116 38101 ft 439 kts 220°
2026-05-07 14:22 52.52261 1.31632 38100 ft 439 kts 220°
2026-05-07 14:22 52.47586 1.25157 38106 ft 440 kts 220°
2026-05-07 14:23 52.42911 1.18701 38091 ft 440 kts 220°
2026-05-07 14:23 52.38233 1.12258 38093 ft 439 kts 220°
2026-05-07 14:24 52.33556 1.05835 38085 ft 439 kts 220°
2026-05-07 14:24 52.28873 0.99422 38082 ft 439 kts 220°
2026-05-07 14:25 52.24194 0.93031 38087 ft 439 kts 220°
2026-05-07 14:25 52.19511 0.86655 38077 ft 438 kts 220°
2026-05-07 14:26 52.14828 0.80296 38073 ft 438 kts 220°
2026-05-07 14:26 52.10144 0.73953 38074 ft 438 kts 220°
2026-05-07 14:27 52.05460 0.67629 38068 ft 438 kts 220°
2026-05-07 14:27 52.00999 0.60938 38066 ft 437 kts 230°
2026-05-07 14:28 51.97187 0.53253 38074 ft 437 kts 231°
2026-05-07 14:28 51.93409 0.45551 38072 ft 437 kts 231°
2026-05-07 14:29 51.89600 0.37875 38072 ft 437 kts 231°
2026-05-07 14:29 51.85776 0.30242 38073 ft 437 kts 231°
2026-05-07 14:30 51.81934 0.22618 38072 ft 438 kts 231°
2026-05-07 14:30 51.78122 0.15073 38077 ft 438 kts 231°
2026-05-07 14:31 51.74262 0.07453 38073 ft 439 kts 230°
2026-05-07 14:31 51.70393 -0.00159 38072 ft 439 kts 230°
2026-05-07 14:32 51.66517 -0.07765 38066 ft 439 kts 230°
2026-05-07 14:32 51.62676 -0.15276 38062 ft 438 kts 230°
2026-05-07 14:33 51.58805 -0.22828 38060 ft 437 kts 230°
2026-05-07 14:33 51.54938 -0.30347 38053 ft 436 kts 230°
2026-05-07 14:34 51.51070 -0.37848 38051 ft 435 kts 230°
2026-05-07 14:34 51.47213 -0.45310 38043 ft 434 kts 230°
2026-05-07 14:35 51.43355 -0.52746 38046 ft 433 kts 230°
2026-05-07 14:35 51.39500 -0.60154 38046 ft 432 kts 230°
2026-05-07 14:36 51.35648 -0.67539 38047 ft 432 kts 230°
2026-05-07 14:36 51.31788 -0.74916 38047 ft 432 kts 230°
2026-05-07 14:37 51.27923 -0.82285 38047 ft 433 kts 230°
2026-05-07 14:37 51.22132 -0.93286 38048 ft 434 kts 230°
2026-05-07 14:38 51.18037 -1.00358 38051 ft 434 kts 224°
2026-05-07 14:38 51.13637 -1.06972 38045 ft 435 kts 223°
2026-05-07 14:39 51.09236 -1.13590 38048 ft 436 kts 223°
2026-05-07 14:39 51.04858 -1.20258 38047 ft 436 kts 224°
2026-05-07 14:40 51.00474 -1.26945 38046 ft 436 kts 224°
2026-05-07 14:40 50.96040 -1.33516 38042 ft 436 kts 218°
2026-05-07 14:41 50.90843 -1.38411 38058 ft 435 kts 206°
2026-05-07 14:41 50.85401 -1.42627 38045 ft 435 kts 207°
2026-05-07 14:42 50.79990 -1.46891 38046 ft 434 kts 207°
2026-05-07 14:42 50.74604 -1.51179 38044 ft 433 kts 207°
2026-05-07 14:43 50.69228 -1.55445 38046 ft 432 kts 207°
2026-05-07 14:43 50.63848 -1.59691 38046 ft 432 kts 207°
2026-05-07 14:44 50.58484 -1.63915 38049 ft 431 kts 207°
2026-05-07 14:44 50.53115 -1.68136 38046 ft 431 kts 207°
2026-05-07 14:45 50.47749 -1.72342 38045 ft 431 kts 207°
2026-05-07 14:45 50.42383 -1.76535 38046 ft 431 kts 207°
2026-05-07 14:46 50.37014 -1.80725 38046 ft 431 kts 207°
2026-05-07 14:46 50.31640 -1.84910 38045 ft 431 kts 207°
2026-05-07 14:47 50.27136 -1.88408 38038 ft 431 kts 207°
2026-05-07 14:47 50.21759 -1.92572 38039 ft 431 kts 207°
2026-05-07 14:48 50.16374 -1.96733 38037 ft 432 kts 207°
2026-05-07 14:48 50.10986 -2.00884 38036 ft 432 kts 207°
2026-05-07 14:49 50.05597 -2.05028 38038 ft 432 kts 207°
2026-05-07 14:49 50.00195 -2.09171 38038 ft 433 kts 207°
2026-05-07 14:50 49.94600 -2.12598 38057 ft 433 kts 198°
2026-05-07 14:50 49.88814 -2.15229 38045 ft 433 kts 197°
2026-05-07 14:51 49.83023 -2.17832 38044 ft 433 kts 197°
2026-05-07 14:51 49.77242 -2.20480 38047 ft 433 kts 198°
2026-05-07 14:52 49.71474 -2.23149 38045 ft 433 kts 198°
2026-05-07 14:52 49.65702 -2.25822 38047 ft 432 kts 198°
2026-05-07 14:53 49.59939 -2.28488 38046 ft 433 kts 198°
2026-05-07 14:53 49.54168 -2.31146 38043 ft 433 kts 198°
2026-05-07 14:54 49.48385 -2.33803 38036 ft 434 kts 198°
2026-05-07 14:54 49.42606 -2.36451 38028 ft 433 kts 198°
2026-05-07 14:55 49.36827 -2.39093 38031 ft 433 kts 198°
2026-05-07 14:55 49.31060 -2.41724 38024 ft 432 kts 198°
2026-05-07 14:56 49.25289 -2.44350 38020 ft 432 kts 198°
2026-05-07 14:56 49.19538 -2.46960 38017 ft 431 kts 198°
2026-05-07 14:57 49.13786 -2.49565 38022 ft 431 kts 198°
2026-05-07 14:57 49.08044 -2.52160 38015 ft 430 kts 198°
2026-05-07 14:58 49.02309 -2.54745 38018 ft 429 kts 198°
2026-05-07 14:58 48.96577 -2.57324 38016 ft 430 kts 198°
2026-05-07 14:59 48.90835 -2.59898 38013 ft 430 kts 198°
2026-05-07 14:59 48.85093 -2.62465 38007 ft 430 kts 198°
2026-05-07 15:00 48.79348 -2.65031 38000 ft 431 kts 198°
2026-05-07 15:00 48.73594 -2.67599 37998 ft 431 kts 198°
2026-05-07 15:01 48.67838 -2.70152 38000 ft 431 kts 198°
2026-05-07 15:01 48.62082 -2.72703 38001 ft 431 kts 198°
2026-05-07 15:02 48.56345 -2.75236 37991 ft 431 kts 198°
2026-05-07 15:02 48.50591 -2.77771 37988 ft 430 kts 198°
2026-05-07 15:03 48.44854 -2.80296 37988 ft 429 kts 198°
2026-05-07 15:03 48.39133 -2.82809 37991 ft 428 kts 198°
2026-05-07 15:04 48.33426 -2.85309 37991 ft 427 kts 198°
2026-05-07 15:04 48.27728 -2.87799 37991 ft 426 kts 198°
2026-05-07 15:05 48.22035 -2.90281 37990 ft 426 kts 198°
2026-05-07 15:05 48.16340 -2.92756 37991 ft 426 kts 198°
2026-05-07 15:06 48.10651 -2.95225 37989 ft 426 kts 198°
2026-05-07 15:06 48.04957 -2.97691 37993 ft 426 kts 198°
2026-05-07 15:07 47.99255 -3.00153 37996 ft 427 kts 198°
2026-05-07 15:07 47.93540 -3.02617 37993 ft 428 kts 198°
2026-05-07 15:08 47.87815 -3.05079 37989 ft 428 kts 198°
2026-05-07 15:08 47.82090 -3.07534 37990 ft 428 kts 197°
2026-05-07 15:09 47.76367 -3.09983 37990 ft 428 kts 197°
2026-05-07 15:09 47.70636 -3.12429 37990 ft 428 kts 197°
2026-05-07 15:10 47.64907 -3.14870 37991 ft 428 kts 197°
2026-05-07 15:10 47.59185 -3.17302 37990 ft 428 kts 197°
2026-05-07 15:11 47.53465 -3.19728 37988 ft 427 kts 197°
2026-05-07 15:11 47.47752 -3.22145 37990 ft 427 kts 197°
2026-05-07 15:12 47.42051 -3.24552 37990 ft 426 kts 197°
2026-05-07 15:12 47.36356 -3.26950 37992 ft 426 kts 197°
2026-05-07 15:13 47.30659 -3.29344 37990 ft 425 kts 197°
2026-05-07 15:13 47.24970 -3.31730 37994 ft 425 kts 197°
2026-05-07 15:14 47.19278 -3.34112 37988 ft 425 kts 197°
2026-05-07 15:14 47.13587 -3.36488 37992 ft 425 kts 197°
2026-05-07 15:15 47.07857 -3.38874 37992 ft 425 kts 197°
2026-05-07 15:15 47.02159 -3.41242 37992 ft 426 kts 197°
2026-05-07 15:16 46.96453 -3.43608 37990 ft 426 kts 197°
2026-05-07 15:16 46.90746 -3.45968 37994 ft 426 kts 197°
2026-05-07 15:17 46.85031 -3.48330 37990 ft 426 kts 197°
2026-05-07 15:17 46.79323 -3.50682 37990 ft 426 kts 197°
2026-05-07 15:18 46.73614 -3.53028 37990 ft 426 kts 197°
2026-05-07 15:18 46.67902 -3.55371 37989 ft 426 kts 197°
2026-05-07 15:19 46.62192 -3.57705 37980 ft 426 kts 197°
2026-05-07 15:19 46.56520 -3.60020 37982 ft 426 kts 197°
2026-05-07 15:20 46.50812 -3.62347 37983 ft 426 kts 197°
2026-05-07 15:20 46.45069 -3.64683 37980 ft 426 kts 197°
2026-05-07 15:21 46.39357 -3.67002 37983 ft 426 kts 197°
2026-05-07 15:21 46.33648 -3.69314 37982 ft 426 kts 197°
2026-05-07 15:22 46.27840 -3.70729 37991 ft 427 kts 188°
2026-05-07 15:22 46.21871 -3.71547 37978 ft 428 kts 187°
2026-05-07 15:23 46.15975 -3.72357 37976 ft 428 kts 187°
2026-05-07 15:23 46.10049 -3.73214 37976 ft 428 kts 188°
2026-05-07 15:24 46.04112 -3.74092 37961 ft 429 kts 188°
2026-05-07 15:24 45.98180 -3.74975 37954 ft 429 kts 188°
2026-05-07 15:25 45.92245 -3.75856 37952 ft 429 kts 188°
2026-05-07 15:25 45.86316 -3.76733 37954 ft 429 kts 188°
2026-05-07 15:26 45.81340 -3.77468 37951 ft 429 kts 188°
2026-05-07 15:26 45.75399 -3.78345 37944 ft 429 kts 188°
2026-05-07 15:27 45.69463 -3.79219 37941 ft 429 kts 188°
2026-05-07 15:27 45.63520 -3.80087 37939 ft 429 kts 188°
2026-05-07 15:28 45.57585 -3.80956 37946 ft 429 kts 188°
2026-05-07 15:28 45.51649 -3.81826 37937 ft 429 kts 188°
2026-05-07 15:29 45.45714 -3.82691 37935 ft 429 kts 188°
2026-05-07 15:29 45.39783 -3.83553 37935 ft 429 kts 188°
2026-05-07 15:30 45.33881 -3.84412 37937 ft 429 kts 188°
2026-05-07 15:30 45.27916 -3.85274 37926 ft 428 kts 188°
2026-05-07 15:31 45.22027 -3.86125 37925 ft 428 kts 188°
2026-05-07 15:31 45.16109 -3.86979 37924 ft 427 kts 188°
2026-05-07 15:32 45.10206 -3.87831 37919 ft 427 kts 188°
2026-05-07 15:32 45.04302 -3.88678 37916 ft 426 kts 188°
2026-05-07 15:33 44.98403 -3.89524 37916 ft 426 kts 188°
2026-05-07 15:33 44.92509 -3.90366 37917 ft 426 kts 188°
2026-05-07 15:34 44.86619 -3.91207 37913 ft 426 kts 188°
2026-05-07 15:34 44.80720 -3.92045 37905 ft 426 kts 187°
2026-05-07 15:35 44.74822 -3.92886 37909 ft 426 kts 187°
2026-05-07 15:35 44.68957 -3.93717 37906 ft 426 kts 188°
2026-05-07 15:36 44.63058 -3.94556 37904 ft 426 kts 187°
2026-05-07 15:36 44.57151 -3.95390 37907 ft 427 kts 187°
2026-05-07 15:37 44.51230 -3.96224 37900 ft 428 kts 187°
2026-05-07 15:37 44.45306 -3.97058 37898 ft 428 kts 187°
2026-05-07 15:38 44.39378 -3.97891 37899 ft 429 kts 187°
2026-05-07 15:38 44.33436 -3.98722 37900 ft 429 kts 187°
2026-05-07 15:39 44.27483 -3.99466 37892 ft 430 kts 186°
2026-05-07 15:39 44.21518 -4.00129 37905 ft 431 kts 186°
2026-05-07 15:40 44.15497 -4.00793 37898 ft 438 kts 186°
2026-05-07 15:40 44.09494 -4.01475 37882 ft 425 kts 186°
2026-05-07 15:41 44.03615 -4.02143 37881 ft 423 kts 186°
2026-05-07 15:41 43.97778 -4.02805 37882 ft 425 kts 186°
2026-05-07 15:42 43.91878 -4.03473 37894 ft 428 kts 186°
2026-05-07 15:42 43.85917 -4.04148 37892 ft 432 kts 186°
2026-05-07 15:43 43.79909 -4.04827 37870 ft 433 kts 186°
2026-05-07 15:43 43.73919 -4.05504 37887 ft 430 kts 186°
2026-05-07 15:44 43.67963 -4.06172 37879 ft 428 kts 186°
2026-05-07 15:44 43.62037 -4.06835 37888 ft 426 kts 186°
2026-05-07 15:45 43.56130 -4.07496 37889 ft 425 kts 187°
2026-05-07 15:45 43.50272 -4.08150 37889 ft 425 kts 187°
2026-05-07 15:46 43.41420 -4.09140 37894 ft 426 kts 187°
2026-05-07 15:47 43.35494 -4.09798 37892 ft 428 kts 187°
2026-05-07 15:47 43.29548 -4.10458 37888 ft 429 kts 187°
2026-05-07 15:48 43.23579 -4.11118 37886 ft 431 kts 187°
2026-05-07 15:48 43.17590 -4.11780 37890 ft 433 kts 187°
2026-05-07 15:49 43.11581 -4.12442 37902 ft 434 kts 187°
2026-05-07 15:49 43.05559 -4.13106 37904 ft 434 kts 187°
2026-05-07 15:50 42.99528 -4.13767 37910 ft 435 kts 187°
2026-05-07 15:50 42.93490 -4.14430 37908 ft 435 kts 187°
2026-05-07 15:51 42.87441 -4.15093 37914 ft 436 kts 187°
2026-05-07 15:51 42.81400 -4.15753 37919 ft 436 kts 187°
2026-05-07 15:52 42.75396 -4.16407 37931 ft 435 kts 187°
2026-05-07 15:52 42.69361 -4.17063 37928 ft 435 kts 187°
2026-05-07 15:53 42.63338 -4.17717 37939 ft 434 kts 187°
2026-05-07 15:53 42.57312 -4.18371 37932 ft 434 kts 187°
2026-05-07 15:54 42.51294 -4.19022 37934 ft 434 kts 187°
2026-05-07 15:54 42.45279 -4.19672 37939 ft 433 kts 187°
2026-05-07 15:55 42.39270 -4.20319 37937 ft 433 kts 187°
2026-05-07 15:55 42.33268 -4.20964 37941 ft 432 kts 187°
2026-05-07 15:56 42.27270 -4.21609 37949 ft 432 kts 187°
2026-05-07 15:56 42.21273 -4.22251 37949 ft 433 kts 187°
2026-05-07 15:57 42.15272 -4.22894 37949 ft 433 kts 187°
2026-05-07 15:57 42.09300 -4.23530 37944 ft 433 kts 187°
2026-05-07 15:58 42.03286 -4.24171 37934 ft 434 kts 187°
2026-05-07 15:58 41.97256 -4.24813 37935 ft 435 kts 187°
2026-05-07 15:59 41.91231 -4.25451 37932 ft 434 kts 187°
2026-05-07 15:59 41.85209 -4.26089 37924 ft 434 kts 187°
2026-05-07 16:00 41.79188 -4.26726 37927 ft 434 kts 187°
2026-05-07 16:00 41.73167 -4.27362 37925 ft 434 kts 187°
2026-05-07 16:01 41.67137 -4.27997 37926 ft 434 kts 187°
2026-05-07 16:01 41.61117 -4.28630 37918 ft 434 kts 187°
2026-05-07 16:02 41.55090 -4.29263 37916 ft 434 kts 187°
2026-05-07 16:02 41.49106 -4.29889 37916 ft 434 kts 187°
2026-05-07 16:03 41.43082 -4.30519 37917 ft 434 kts 187°
2026-05-07 16:03 41.37050 -4.31150 37918 ft 435 kts 187°
2026-05-07 16:04 41.31012 -4.31779 37920 ft 435 kts 188°
2026-05-07 16:04 41.24975 -4.32405 37928 ft 436 kts 188°
2026-05-07 16:05 41.18928 -4.33034 37926 ft 436 kts 188°
2026-05-07 16:05 41.12868 -4.33661 37930 ft 437 kts 188°
2026-05-07 16:06 41.06808 -4.34286 37931 ft 437 kts 188°
2026-05-07 16:06 41.00743 -4.34913 37924 ft 437 kts 188°
2026-05-07 16:07 40.94676 -4.35539 37929 ft 437 kts 188°
2026-05-07 16:07 40.88611 -4.36162 37939 ft 437 kts 188°
2026-05-07 16:08 40.82549 -4.36784 37955 ft 437 kts 188°
2026-05-07 16:08 40.76518 -4.37402 37964 ft 437 kts 188°
2026-05-07 16:09 40.70451 -4.38023 37952 ft 437 kts 188°
2026-05-07 16:09 40.64432 -4.38637 37951 ft 437 kts 188°
2026-05-07 16:10 40.58362 -4.39258 37938 ft 438 kts 188°
2026-05-07 16:10 40.52289 -4.39875 37928 ft 438 kts 188°
2026-05-07 16:11 40.46218 -4.40489 37926 ft 437 kts 189°
2026-05-07 16:11 40.40160 -4.41102 37926 ft 437 kts 189°
2026-05-07 16:12 40.34105 -4.41715 37927 ft 436 kts 188°
2026-05-07 16:12 40.28058 -4.42323 37910 ft 436 kts 189°
2026-05-07 16:13 40.22008 -4.42934 37902 ft 436 kts 189°
2026-05-07 16:13 40.15964 -4.43544 37909 ft 435 kts 189°
2026-05-07 16:14 40.09976 -4.44145 37906 ft 434 kts 189°
2026-05-07 16:14 40.03954 -4.44750 37912 ft 434 kts 189°
2026-05-07 16:15 39.97934 -4.45354 37901 ft 435 kts 189°
2026-05-07 16:15 39.91892 -4.45957 37905 ft 435 kts 189°
2026-05-07 16:16 39.85860 -4.46557 37909 ft 435 kts 189°
2026-05-07 16:16 39.79821 -4.47158 37898 ft 435 kts 189°
2026-05-07 16:17 39.73779 -4.47757 37897 ft 435 kts 189°
2026-05-07 16:17 39.67744 -4.48356 37898 ft 435 kts 189°
2026-05-07 16:18 39.61700 -4.48956 37897 ft 435 kts 189°
2026-05-07 16:18 39.55657 -4.49553 37899 ft 436 kts 189°
2026-05-07 16:19 39.49604 -4.50149 37895 ft 437 kts 190°
2026-05-07 16:19 39.43533 -4.50748 37898 ft 438 kts 190°
2026-05-07 16:20 39.37493 -4.51343 37891 ft 439 kts 190°
2026-05-07 16:20 39.31396 -4.51942 37890 ft 440 kts 190°
2026-05-07 16:21 39.25291 -4.52539 37888 ft 440 kts 190°
2026-05-07 16:21 39.19171 -4.53137 37897 ft 441 kts 190°
2026-05-07 16:22 39.14082 -4.53636 37886 ft 442 kts 191°
2026-05-07 16:22 39.07953 -4.54233 37893 ft 442 kts 191°
2026-05-07 16:23 39.01804 -4.54832 37877 ft 444 kts 191°
2026-05-07 16:23 38.95643 -4.55431 37879 ft 444 kts 191°
2026-05-07 16:24 38.89538 -4.56352 37885 ft 440 kts 196°
2026-05-07 16:24 38.83520 -4.57682 37873 ft 439 kts 197°
2026-05-07 16:25 38.77539 -4.59007 37863 ft 439 kts 197°
2026-05-07 16:25 38.71474 -4.60298 37875 ft 439 kts 197°
2026-05-07 16:26 38.65444 -4.61556 37860 ft 439 kts 197°
2026-05-07 16:26 38.59409 -4.62812 37862 ft 439 kts 197°
2026-05-07 16:27 38.53370 -4.64066 37860 ft 439 kts 197°
2026-05-07 16:27 38.47379 -4.65309 37861 ft 440 kts 197°
2026-05-07 16:28 38.41338 -4.66562 37862 ft 440 kts 197°
2026-05-07 16:28 38.35299 -4.67812 37856 ft 440 kts 197°
2026-05-07 16:29 38.29252 -4.69057 37864 ft 440 kts 197°
2026-05-07 16:29 38.26270 -4.69663 37839 ft 427 kts 197°
2026-05-07 16:29 38.23382 -4.70242 37810 ft 413 kts 197°
2026-05-07 16:29 38.20570 -4.70807 37554 ft 406 kts 198°
2026-05-07 16:30 38.17783 -4.71376 36870 ft 409 kts 198°
2026-05-07 16:30 38.14940 -4.71969 35908 ft 420 kts 198°
2026-05-07 16:30 38.12018 -4.72579 34892 ft 431 kts 198°
2026-05-07 16:30 38.09021 -4.73202 33736 ft 443 kts 198°
2026-05-07 16:31 38.05940 -4.73834 32692 ft 452 kts 198°
2026-05-07 16:31 38.02809 -4.74468 31693 ft 458 kts 198°
2026-05-07 16:31 37.99649 -4.75105 30700 ft 462 kts 198°
2026-05-07 16:31 37.96453 -4.75748 29819 ft 464 kts 198°
2026-05-07 16:32 37.93279 -4.76382 29165 ft 460 kts 198°
2026-05-07 16:32 37.90141 -4.77008 28597 ft 453 kts 197°
2026-05-07 16:32 37.87054 -4.77628 28066 ft 445 kts 197°
2026-05-07 16:32 37.84013 -4.78242 27446 ft 441 kts 197°
2026-05-07 16:33 37.80997 -4.78855 26812 ft 436 kts 196°
2026-05-07 16:33 37.78014 -4.79456 26155 ft 433 kts 195°
2026-05-07 16:33 37.74983 -4.79530 25484 ft 443 kts 176°
2026-05-07 16:33 37.71988 -4.78586 24961 ft 442 kts 169°
2026-05-07 16:34 37.69062 -4.77507 24418 ft 436 kts 168°
2026-05-07 16:34 37.66165 -4.76432 23825 ft 431 kts 168°
2026-05-07 16:34 37.63303 -4.75388 23242 ft 425 kts 168°
2026-05-07 16:34 37.60473 -4.74375 22689 ft 420 kts 168°
2026-05-07 16:35 37.57673 -4.73390 22092 ft 416 kts 169°
2026-05-07 16:35 37.54908 -4.72426 21528 ft 410 kts 169°
2026-05-07 16:35 37.52170 -4.71474 20964 ft 405 kts 169°
2026-05-07 16:35 37.49448 -4.70758 20363 ft 392 kts 179°
2026-05-07 16:36 37.46771 -4.70732 19554 ft 380 kts 189°
2026-05-07 16:36 37.44187 -4.71234 18587 ft 373 kts 195°
2026-05-07 16:36 37.41662 -4.71853 17672 ft 368 kts 195°
2026-05-07 16:36 37.39162 -4.72461 16807 ft 362 kts 194°
2026-05-07 16:37 37.36701 -4.73051 15913 ft 358 kts 194°
2026-05-07 16:37 37.34303 -4.73620 15073 ft 352 kts 193°
2026-05-07 16:37 37.31909 -4.74184 14165 ft 349 kts 193°
2026-05-07 16:37 37.29536 -4.74740 13296 ft 345 kts 193°
2026-05-07 16:38 37.27193 -4.75288 12457 ft 340 kts 192°
2026-05-07 16:38 37.24894 -4.75825 11817 ft 330 kts 192°
2026-05-07 16:38 37.22695 -4.76336 11503 ft 312 kts 192°
2026-05-07 16:38 37.20631 -4.76816 11306 ft 293 kts 192°
2026-05-07 16:39 37.18664 -4.77274 10890 ft 283 kts 192°
2026-05-07 16:39 37.16761 -4.77717 10499 ft 274 kts 192°
2026-05-07 16:39 37.14897 -4.78152 9959 ft 272 kts 192°
2026-05-07 16:39 37.13038 -4.78586 9383 ft 272 kts 192°
2026-05-07 16:40 37.11196 -4.79012 9036 ft 265 kts 192°
2026-05-07 16:40 37.09410 -4.79428 8824 ft 258 kts 192°
2026-05-07 16:40 37.07677 -4.79829 8709 ft 248 kts 192°
2026-05-07 16:40 37.05996 -4.80155 8488 ft 244 kts 184°
2026-05-07 16:41 37.04313 -4.80155 8257 ft 240 kts 180°
2026-05-07 16:41 37.02649 -4.80103 8001 ft 236 kts 180°
2026-05-07 16:41 37.01037 -4.80062 7729 ft 228 kts 181°
2026-05-07 16:41 36.99471 -4.80029 7464 ft 221 kts 181°
2026-05-07 16:42 36.97951 -4.80004 7199 ft 217 kts 181°
2026-05-07 16:42 36.96451 -4.79986 6951 ft 216 kts 181°
2026-05-07 16:42 36.94953 -4.79966 6690 ft 214 kts 181°
2026-05-07 16:42 36.93464 -4.79944 6432 ft 214 kts 179°
2026-05-07 16:43 36.92040 -4.79512 6192 ft 215 kts 160°
2026-05-07 16:43 36.90614 -4.78850 5940 ft 218 kts 162°
2026-05-07 16:43 36.89185 -4.78214 5697 ft 219 kts 162°
2026-05-07 16:43 36.87765 -4.77590 5441 ft 220 kts 162°
2026-05-07 16:44 36.86346 -4.76881 5176 ft 220 kts 154°
2026-05-07 16:44 36.85008 -4.75969 4926 ft 218 kts 152°
2026-05-07 16:44 36.83683 -4.75060 4675 ft 217 kts 152°
2026-05-07 16:44 36.82358 -4.74155 4426 ft 217 kts 153°
2026-05-07 16:45 36.81032 -4.73252 4162 ft 217 kts 153°
2026-05-07 16:45 36.79722 -4.72362 3892 ft 210 kts 153°
2026-05-07 16:45 36.78456 -4.71508 3634 ft 203 kts 153°
2026-05-07 16:45 36.77361 -4.70452 3468 ft 196 kts 123°
2026-05-07 16:46 36.76764 -4.68938 3216 ft 198 kts 116°
2026-05-07 16:46 36.76123 -4.67438 2987 ft 195 kts 119°
2026-05-07 16:46 36.75481 -4.65947 2737 ft 194 kts 119°
2026-05-07 16:46 36.74856 -4.64470 2469 ft 190 kts 119°
2026-05-07 16:47 36.74247 -4.63023 2208 ft 187 kts 119°
2026-05-07 16:47 36.73651 -4.61609 1971 ft 182 kts 119°
2026-05-07 16:47 36.73074 -4.60238 1720 ft 175 kts 118°
2026-05-07 16:47 36.72526 -4.58934 1500 ft 165 kts 118°
2026-05-07 16:48 36.72011 -4.57708 1290 ft 155 kts 118°
2026-05-07 16:48 36.71529 -4.56564 1117 ft 140 kts 118°
2026-05-07 16:48 36.71094 -4.55523 909 ft 132 kts 118°
2026-05-07 16:48 36.70669 -4.54511 745 ft 132 kts 118°
2026-05-07 16:49 36.70243 -4.53496 562 ft 132 kts 118°
2026-05-07 16:49 36.69831 -4.52489 407 ft 130 kts 119°
2026-05-07 16:49 36.69398 -4.51466 238 ft 136 kts 117°
2026-05-07 16:49 36.68957 -4.50428 58 ft 131 kts 118°
2026-05-07 16:50 36.68589 -4.49549 47 ft 84 kts 117°
2026-05-07 16:50 36.68392 -4.49092 43 ft 50 kts 121°
2026-05-07 16:50 36.68238 -4.48900 39 ft 19 kts 146°
2026-05-07 16:50 36.68132 -4.48884 39 ft 14 kts 237°
2026-05-07 16:51 36.68164 -4.48984 39 ft 13 kts 299°
2026-05-07 16:51 36.68206 -4.49080 39 ft 13 kts 298°
2026-05-07 16:51 36.68254 -4.49196 39 ft 17 kts 295°
2026-05-07 16:51 36.68267 -4.49335 37 ft 17 kts 232°
2026-05-07 16:52 36.68180 -4.49432 38 ft 16 kts 220°
2026-05-07 16:52 36.68097 -4.49526 41 ft 16 kts 222°
2026-05-07 16:52 36.68014 -4.49612 41 ft 15 kts 218°
2026-05-07 16:52 36.67951 -4.49653 41 ft 8 kts 155°
2026-05-07 16:53 36.67918 -4.49608 39 ft 7 kts 130°
2026-05-07 16:53 36.67912 -4.49600 41 ft 0 kts 131°
2026-05-07 16:53 36.67897 -4.49580 40 ft 4 kts 133°
2026-05-07 16:53 36.67886 -4.49566 41 ft 0 kts 132°